| time (UTC) | temp F | wind direction | speed MPH | gust MPH | rain 1hr in | rain 24hr in | rain mn in | humidity % | barometer mb |
| 20260510160040 | 57 | 145 | 0.0 | 2.0 | 0.00 | 0.00 | 0.00 | 47 | 1013.8 |
| 20260510155534 | 56 | 146 | 0.0 | 2.0 | 0.00 | 0.00 | 0.00 | 48 | 1013.9 |
| 20260510155028 | 56 | 146 | 0.0 | 2.0 | 0.00 | 0.00 | 0.00 | 49 | 1013.9 |
| 20260510154521 | 55 | 146 | 0.0 | 2.0 | 0.00 | 0.00 | 0.00 | 50 | 1013.9 |
| 20260510154017 | 54 | 146 | 0.0 | 1.0 | 0.00 | 0.00 | 0.00 | 51 | 1014.0 |
| 20260510153515 | 54 | 146 | 0.0 | 1.0 | 0.00 | 0.00 | 0.00 | 51 | 1014.0 |
| 20260510153009 | 53 | 146 | 0.0 | 2.0 | 0.00 | 0.00 | 0.00 | 52 | 1013.8 |
| 20260510152725 | 53 | 146 | 0.0 | 2.0 | 0.00 | 0.00 | 0.00 | 53 | 1013.9 |
| 20260510152507 | 53 | 146 | 0.0 | 2.0 | 0.00 | 0.00 | 0.00 | 53 | 1013.9 |
| 20260510152018 | 52 | 146 | 0.0 | 1.0 | 0.00 | 0.00 | 0.00 | 54 | 1014.0 |
| 20260510152014 | 53 | 146 | 0.0 | 1.0 | 0.00 | 0.00 | 0.00 | 53 | 1013.9 |
| 20260510150941 | 52 | 146 | 0.0 | 2.0 | 0.00 | 0.00 | 0.00 | 54 | 1013.9 |
| 20260510150435 | 51 | 146 | 1.0 | 3.0 | 0.00 | 0.00 | 0.00 | 54 | 1013.9 |
| 20260510145928 | 51 | 146 | 0.0 | 3.0 | 0.00 | 0.00 | 0.00 | 53 | 1014.0 |
| 20260510145424 | 51 | 145 | 1.0 | 2.0 | 0.00 | 0.00 | 0.00 | 53 | 1013.9 |
| 20260510144919 | 51 | 146 | 1.0 | 4.0 | 0.00 | 0.00 | 0.00 | 54 | 1013.9 |
| 20260510144644 | 50 | 146 | 1.0 | 4.0 | 0.00 | 0.00 | 0.00 | 54 | 1013.9 |
| 20260510143913 | 50 | 148 | 1.0 | 3.0 | 0.00 | 0.00 | 0.00 | 55 | 1013.8 |
| 20260510143631 | 50 | 146 | 0.0 | 2.0 | 0.00 | 0.00 | 0.00 | 56 | 1013.9 |
| 20260510142853 | 49 | 146 | 0.0 | 0.0 | 0.00 | 0.00 | 0.00 | 58 | 1013.9 |
| 20260510142346 | 49 | 146 | 0.0 | 0.0 | 0.00 | 0.00 | 0.00 | 58 | 1014.0 |
| 20260510142102 | 49 | 146 | 0.0 | 1.0 | 0.00 | 0.00 | 0.00 | 57 | 1014.0 |
| 20260510141852 | 49 | 146 | 0.0 | 1.0 | 0.00 | 0.00 | 0.00 | 57 | 1014.0 |
| 20260510141334 | 49 | 146 | 0.0 | 2.0 | 0.00 | 0.00 | 0.00 | 57 | 1014.0 |
| 20260510140830 | 49 | 146 | 0.0 | 2.0 | 0.00 | 0.00 | 0.00 | 56 | 1013.9 |
| 20260510140547 | 49 | 146 | 0.0 | 2.0 | 0.00 | 0.00 | 0.00 | 56 | 1013.8 |
| 20260510135824 | 49 | 146 | 0.0 | 2.0 | 0.00 | 0.00 | 0.00 | 55 | 1013.8 |
| 20260510135320 | 49 | 146 | 0.0 | 0.0 | 0.00 | 0.00 | 0.00 | 58 | 1013.6 |
| 20260510135046 | 49 | 146 | 0.0 | 2.0 | 0.00 | 0.00 | 0.00 | 57 | 1013.8 |
| 20260510134820 | 49 | 146 | 0.0 | 2.0 | 0.00 | 0.00 | 0.00 | 57 | 1013.8 |
| 20260510134315 | 48 | 146 | 0.0 | 2.0 | 0.00 | 0.00 | 0.00 | 58 | 1013.8 |
| 20260510133815 | 47 | 146 | 0.0 | 2.0 | 0.00 | 0.00 | 0.00 | 59 | 1013.6 |
| 20260510133556 | 46 | 146 | 0.0 | 2.0 | 0.00 | 0.00 | 0.00 | 59 | 1013.5 |
| 20260510133056 | 46 | 146 | 0.0 | 2.0 | 0.00 | 0.00 | 0.00 | 58 | 1013.6 |
| 20260510132313 | 46 | 146 | 0.0 | 2.0 | 0.00 | 0.00 | 0.00 | 59 | 1013.4 |
| 20260510132056 | 46 | 146 | 0.0 | 2.0 | 0.00 | 0.00 | 0.00 | 59 | 1013.5 |
| 20260510131601 | 45 | 146 | 0.0 | 2.0 | 0.00 | 0.00 | 0.00 | 60 | 1013.5 |
| 20260510130821 | 45 | 143 | 0.0 | 2.0 | 0.00 | 0.00 | 0.00 | 61 | 1013.4 |
| 20260510130310 | 44 | 143 | 0.0 | 2.0 | 0.00 | 0.00 | 0.00 | 62 | 1013.4 |
| 20260510125812 | 44 | 143 | 0.0 | 1.0 | 0.00 | 0.00 | 0.00 | 61 | 1013.4 |
| 20260510125309 | 45 | 143 | 1.0 | 3.0 | 0.00 | 0.00 | 0.00 | 61 | 1013.4 |
| 20260510124809 | 44 | 143 | 1.0 | 4.0 | 0.00 | 0.00 | 0.00 | 62 | 1013.5 |
| 20260510124312 | 44 | 152 | 1.0 | 4.0 | 0.00 | 0.00 | 0.00 | 63 | 1013.5 |
| 20260510123808 | 43 | 147 | 1.0 | 3.0 | 0.00 | 0.00 | 0.00 | 64 | 1013.4 |
| 20260510123522 | 43 | 148 | 0.0 | 1.0 | 0.00 | 0.00 | 0.00 | 63 | 1013.4 |
| 20260510123302 | 43 | 148 | 0.0 | 1.0 | 0.00 | 0.00 | 0.00 | 63 | 1013.4 |
| 20260510122756 | 43 | 148 | 0.0 | 0.0 | 0.00 | 0.00 | 0.00 | 60 | 1013.3 |
| 20260510122257 | 44 | 148 | 0.0 | 0.0 | 0.00 | 0.00 | 0.00 | 60 | 1013.2 |
| 20260510121754 | 45 | 148 | 0.0 | 0.0 | 0.00 | 0.00 | 0.00 | 59 | 1013.1 |
| 20260510121251 | 46 | 148 | 0.0 | 0.0 | 0.00 | 0.00 | 0.00 | 59 | 1013.2 |
| 20260510120749 | 47 | 148 | 0.0 | 1.0 | 0.00 | 0.00 | 0.00 | 57 | 1013.2 |
| 20260510120252 | 47 | 148 | 0.0 | 1.0 | 0.00 | 0.00 | 0.00 | 57 | 1013.2 |
| 20260510115749 | 48 | 148 | 0.0 | 0.0 | 0.00 | 0.00 | 0.00 | 57 | 1013.2 |
| 20260510115249 | 48 | 148 | 0.0 | 0.0 | 0.00 | 0.00 | 0.00 | 56 | 1013.3 |
| 20260510115030 | 48 | 148 | 0.0 | 0.0 | 0.00 | 0.00 | 0.00 | 57 | 1013.3 |
| 20260510114249 | 48 | 148 | 0.0 | 0.0 | 0.00 | 0.00 | 0.00 | 58 | 1013.3 |
| 20260510113748 | 48 | 148 | 0.0 | 0.0 | 0.00 | 0.00 | 0.00 | 57 | 1013.3 |
| 20260510113249 | 48 | 148 | 0.0 | 0.0 | 0.00 | 0.00 | 0.00 | 55 | 1013.2 |
| 20260510112748 | 49 | 148 | 0.0 | 0.0 | 0.00 | 0.00 | 0.00 | 53 | 1013.3 |
| 20260510112251 | 49 | 148 | 0.0 | 0.0 | 0.00 | 0.00 | 0.00 | 53 | 1013.3 |
| 20260510111749 | 50 | 148 | 0.0 | 0.0 | 0.00 | 0.00 | 0.00 | 52 | 1013.3 |
| 20260510111249 | 50 | 148 | 0.0 | 0.0 | 0.00 | 0.00 | 0.00 | 52 | 1013.3 |
| 20260510110749 | 50 | 148 | 0.0 | 2.0 | 0.00 | 0.00 | 0.00 | 52 | 1013.3 |
| 20260510110250 | 50 | 148 | 0.0 | 2.0 | 0.00 | 0.00 | 0.00 | 52 | 1013.3 |
| 20260510105757 | 50 | 148 | 0.0 | 2.0 | 0.00 | 0.00 | 0.00 | 52 | 1013.4 |
| 20260510105300 | 50 | 148 | 0.0 | 2.0 | 0.00 | 0.00 | 0.00 | 52 | 1013.3 |
| 20260510104755 | 50 | 149 | 0.0 | 2.0 | 0.00 | 0.00 | 0.00 | 53 | 1013.4 |
| 20260510104537 | 49 | 149 | 0.0 | 2.0 | 0.00 | 0.00 | 0.00 | 53 | 1013.3 |
| 20260510103745 | 49 | 149 | 0.0 | 2.0 | 0.00 | 0.00 | 0.00 | 53 | 1013.2 |
| 20260510103241 | 49 | 150 | 1.0 | 3.0 | 0.00 | 0.00 | 0.00 | 54 | 1013.2 |
| 20260510102730 | 49 | 148 | 1.0 | 3.0 | 0.00 | 0.00 | 0.00 | 54 | 1013.1 |
| 20260510102500 | 49 | 287 | 0.0 | 2.0 | 0.00 | 0.00 | 0.00 | 54 | 1013.3 |
| 20260510101726 | 49 | 298 | 0.0 | 0.0 | 0.00 | 0.00 | 0.00 | 54 | 1013.4 |
| 20260510101452 | 49 | 298 | 0.0 | 0.0 | 0.00 | 0.00 | 0.00 | 53 | 1013.3 |
| 20260510100720 | 49 | 298 | 0.0 | 0.0 | 0.00 | 0.00 | 0.00 | 53 | 1013.3 |
| 20260510100426 | 50 | 299 | 0.0 | 0.0 | 0.00 | 0.00 | 0.00 | 52 | 1013.3 |
| 20260510100214 | 50 | 299 | 0.0 | 0.0 | 0.00 | 0.00 | 0.00 | 52 | 1013.3 |
| 20260510095926 | 50 | 299 | 0.0 | 0.0 | 0.00 | 0.00 | 0.00 | 51 | 1013.4 |
| 20260510095149 | 51 | 298 | 0.0 | 0.0 | 0.00 | 0.00 | 0.00 | 51 | 1013.4 |
| 20260510094926 | 52 | 298 | 0.0 | 0.0 | 0.00 | 0.00 | 0.00 | 50 | 1013.4 |
| 20260510094137 | 52 | 298 | 0.0 | 0.0 | 0.00 | 0.00 | 0.00 | 50 | 1013.5 |
| 20260510093630 | 53 | 298 | 0.0 | 0.0 | 0.00 | 0.00 | 0.00 | 50 | 1013.5 |
| 20260510093128 | 53 | 298 | 0.0 | 1.0 | 0.00 | 0.00 | 0.00 | 50 | 1013.5 |
| 20260510092622 | 53 | 298 | 0.0 | 1.0 | 0.00 | 0.00 | 0.00 | 50 | 1013.4 |
| 20260510092350 | 52 | 298 | 0.0 | 0.0 | 0.00 | 0.00 | 0.00 | 50 | 1013.4 |
| 20260510091610 | 53 | 298 | 0.0 | 0.0 | 0.00 | 0.00 | 0.00 | 50 | 1013.5 |
| 20260510091111 | 53 | 298 | 0.0 | 0.0 | 0.00 | 0.00 | 0.00 | 49 | 1013.5 |
| 20260510090556 | 53 | 298 | 0.0 | 0.0 | 0.00 | 0.00 | 0.00 | 48 | 1013.5 |
| 20260510090049 | 53 | 298 | 0.0 | 0.0 | 0.00 | 0.00 | 0.00 | 48 | 1013.5 |
| 20260510085547 | 54 | 298 | 0.0 | 0.0 | 0.00 | 0.00 | 0.00 | 48 | 1013.6 |
| 20260510085043 | 55 | 298 | 0.0 | 0.0 | 0.00 | 0.00 | 0.00 | 47 | 1013.6 |
| 20260510085039 | 54 | 298 | 0.0 | 0.0 | 0.00 | 0.00 | 0.00 | 48 | 1013.6 |
| 20260510084028 | 55 | 298 | 0.0 | 0.0 | 0.00 | 0.00 | 0.00 | 46 | 1013.5 |
| 20260510083520 | 55 | 298 | 0.0 | 0.0 | 0.00 | 0.00 | 0.00 | 46 | 1013.5 |
| 20260510083017 | 56 | 298 | 0.0 | 0.0 | 0.00 | 0.00 | 0.00 | 45 | 1013.5 |
| 20260510082514 | 56 | 298 | 0.0 | 0.0 | 0.00 | 0.00 | 0.00 | 45 | 1013.5 |
| 20260510082008 | 56 | 298 | 0.0 | 0.0 | 0.00 | 0.00 | 0.00 | 45 | 1013.6 |
| 20260510081502 | 56 | 298 | 0.0 | 0.0 | 0.00 | 0.00 | 0.00 | 45 | 1013.6 |
| 20260510080949 | 56 | 298 | 0.0 | 0.0 | 0.00 | 0.00 | 0.00 | 44 | 1013.6 |
| 20260510080443 | 56 | 298 | 0.0 | 0.0 | 0.00 | 0.00 | 0.00 | 44 | 1013.6 |
| 20260510075940 | 56 | 298 | 0.0 | 0.0 | 0.00 | 0.00 | 0.00 | 43 | 1013.6 |
| 20260510075434 | 56 | 298 | 0.0 | 0.0 | 0.00 | 0.00 | 0.00 | 43 | 1013.8 |
| 20260510074929 | 57 | 298 | 0.0 | 0.0 | 0.00 | 0.00 | 0.00 | 42 | 1013.6 |
| 20260510074418 | 57 | 298 | 0.0 | 0.0 | 0.00 | 0.00 | 0.00 | 42 | 1013.8 |
| 20260510074201 | 57 | 298 | 0.0 | 0.0 | 0.00 | 0.00 | 0.00 | 42 | 1013.6 |
| 20260510073410 | 58 | 298 | 0.0 | 0.0 | 0.00 | 0.00 | 0.00 | 41 | 1013.6 |
| 20260510073136 | 58 | 298 | 0.0 | 0.0 | 0.00 | 0.00 | 0.00 | 41 | 1013.6 |
| 20260510072358 | 58 | 298 | 0.0 | 0.0 | 0.00 | 0.00 | 0.00 | 41 | 1013.6 |
| 20260510071851 | 58 | 298 | 0.0 | 1.0 | 0.00 | 0.00 | 0.00 | 40 | 1013.8 |
| 20260510071620 | 59 | 298 | 0.0 | 1.0 | 0.00 | 0.00 | 0.00 | 40 | 1013.8 |
| 20260510070842 | 59 | 298 | 0.0 | 1.0 | 0.00 | 0.00 | 0.00 | 40 | 1013.8 |
| 20260510070607 | 59 | 298 | 0.0 | 1.0 | 0.00 | 0.00 | 0.00 | 40 | 1013.8 |
| 20260510065829 | 59 | 298 | 0.0 | 2.0 | 0.00 | 0.00 | 0.00 | 39 | 1013.8 |
| 20260510065325 | 60 | 298 | 0.0 | 3.0 | 0.00 | 0.00 | 0.00 | 39 | 1013.8 |
| 20260510064815 | 60 | 298 | 1.0 | 3.0 | 0.00 | 0.00 | 0.00 | 39 | 1013.6 |
| 20260510064314 | 60 | 298 | 1.0 | 3.0 | 0.00 | 0.00 | 0.00 | 39 | 1013.6 |
| 20260510064049 | 60 | 298 | 2.0 | 4.0 | 0.00 | 0.00 | 0.00 | 39 | 1013.8 |
| 20260510063532 | 61 | 299 | 2.0 | 4.0 | 0.00 | 0.00 | 0.00 | 39 | 1013.6 |
| 20260510062811 | 61 | 293 | 2.0 | 4.0 | 0.00 | 0.00 | 0.00 | 39 | 1013.6 |
| 20260510062306 | 61 | 286 | 2.0 | 4.0 | 0.00 | 0.00 | 0.00 | 39 | 1013.6 |
| 20260510062027 | 61 | 300 | 2.0 | 4.0 | 0.00 | 0.00 | 0.00 | 39 | 1013.6 |
| 20260510061523 | 61 | 308 | 2.0 | 4.0 | 0.00 | 0.00 | 0.00 | 39 | 1013.6 |
| 20260510061310 | 61 | 308 | 2.0 | 4.0 | 0.00 | 0.00 | 0.00 | 39 | 1013.6 |
| 20260510060801 | 62 | 306 | 2.0 | 4.0 | 0.00 | 0.00 | 0.00 | 38 | 1013.8 |
| 20260510060528 | 62 | 302 | 2.0 | 4.0 | 0.00 | 0.00 | 0.00 | 38 | 1013.8 |
| 20260510060308 | 62 | 302 | 2.0 | 4.0 | 0.00 | 0.00 | 0.00 | 38 | 1013.8 |
| 20260510060306 | 62 | 300 | 2.0 | 5.0 | 0.00 | 0.00 | 0.00 | 38 | 1013.8 |
| 20260510055807 | 62 | 300 | 2.0 | 5.0 | 0.00 | 0.00 | 0.00 | 38 | 1013.8 |
| 20260510055306 | 62 | 310 | 2.0 | 5.0 | 0.00 | 0.00 | 0.00 | 37 | 1013.8 |
| 20260510054815 | 62 | 325 | 2.0 | 5.0 | 0.00 | 0.00 | 0.00 | 37 | 1013.8 |
| 20260510054312 | 63 | 307 | 2.0 | 4.0 | 0.00 | 0.00 | 0.00 | 37 | 1013.8 |
| 20260510054044 | 63 | 306 | 2.0 | 4.0 | 0.00 | 0.00 | 0.00 | 36 | 1013.8 |
| 20260510053302 | 63 | 306 | 2.0 | 6.0 | 0.00 | 0.00 | 0.00 | 36 | 1013.8 |
| 20260510052811 | 64 | 296 | 3.0 | 6.0 | 0.00 | 0.00 | 0.00 | 35 | 1013.8 |
| 20260510052524 | 64 | 305 | 3.0 | 7.0 | 0.00 | 0.00 | 0.00 | 35 | 1013.9 |
| 20260510052307 | 64 | 305 | 3.0 | 7.0 | 0.00 | 0.00 | 0.00 | 35 | 1013.9 |
| 20260510051800 | 65 | 290 | 3.0 | 7.0 | 0.00 | 0.00 | 0.00 | 34 | 1013.8 |
| 20260510051308 | 66 | 327 | 2.0 | 4.0 | 0.00 | 0.00 | 0.00 | 35 | 1013.8 |
| 20260510051301 | 65 | 324 | 2.0 | 4.0 | 0.00 | 0.00 | 0.00 | 34 | 1013.8 |
| 20260510050253 | 66 | 347 | 2.0 | 5.0 | 0.00 | 0.00 | 0.00 | 35 | 1013.6 |
| 20260510045747 | 66 | 355 | 2.0 | 5.0 | 0.00 | 0.00 | 0.00 | 35 | 1013.8 |
| 20260510045523 | 67 | 346 | 2.0 | 5.0 | 0.00 | 0.00 | 0.00 | 34 | 1013.6 |
| 20260510044736 | 67 | 336 | 2.0 | 5.0 | 0.00 | 0.00 | 0.00 | 34 | 1013.6 |
| 20260510044230 | 67 | 355 | 2.0 | 6.0 | 0.00 | 0.00 | 0.00 | 34 | 1013.6 |
| 20260510044015 | 68 | 350 | 3.0 | 8.0 | 0.00 | 0.00 | 0.00 | 33 | 1013.5 |
| 20260510043217 | 68 | 355 | 3.0 | 8.0 | 0.00 | 0.00 | 0.00 | 32 | 1013.4 |
| 20260510042743 | 68 | 5 | 3.0 | 8.0 | 0.00 | 0.00 | 0.00 | 31 | 1013.3 |
| 20260510042727 | 68 | 348 | 3.0 | 8.0 | 0.00 | 0.00 | 0.00 | 32 | 1013.4 |
| 20260510041701 | 69 | 355 | 3.0 | 8.0 | 0.00 | 0.00 | 0.00 | 31 | 1013.3 |
| 20260510041153 | 69 | 346 | 3.0 | 8.0 | 0.00 | 0.00 | 0.00 | 30 | 1013.2 |
| 20260510040928 | 69 | 11 | 3.0 | 10.0 | 0.00 | 0.00 | 0.00 | 29 | 1013.2 |
| 20260510040142 | 69 | 350 | 3.0 | 10.0 | 0.00 | 0.00 | 0.00 | 27 | 1013.1 |
| 20260510035917 | 70 | 346 | 3.0 | 13.0 | 0.00 | 0.00 | 0.00 | 26 | 1013.1 |
| 20260510035129 | 70 | 355 | 3.0 | 13.0 | 0.00 | 0.00 | 0.00 | 25 | 1013.0 |
| 20260510034623 | 70 | 355 | 3.0 | 8.0 | 0.00 | 0.00 | 0.00 | 24 | 1012.9 |
| 20260510034117 | 71 | 355 | 3.0 | 8.0 | 0.00 | 0.00 | 0.00 | 23 | 1012.8 |
| 20260510033612 | 71 | 355 | 3.0 | 8.0 | 0.00 | 0.00 | 0.00 | 23 | 1012.8 |
| 20260510033108 | 71 | 323 | 2.0 | 8.0 | 0.00 | 0.00 | 0.00 | 22 | 1012.8 |
| 20260510032559 | 72 | 355 | 2.0 | 8.0 | 0.00 | 0.00 | 0.00 | 22 | 1012.7 |
| 20260510032336 | 72 | 5 | 2.0 | 5.0 | 0.00 | 0.00 | 0.00 | 22 | 1012.7 |
| 20260510031549 | 73 | 355 | 2.0 | 5.0 | 0.00 | 0.00 | 0.00 | 22 | 1012.7 |
| 20260510031336 | 73 | 20 | 1.0 | 5.0 | 0.00 | 0.00 | 0.00 | 22 | 1012.6 |
| 20260510030535 | 74 | 13 | 1.0 | 5.0 | 0.00 | 0.00 | 0.00 | 22 | 1012.4 |
| 20260510030032 | 75 | 31 | 1.0 | 9.0 | 0.00 | 0.00 | 0.00 | 22 | 1012.4 |
| 20260510025822 | 75 | 33 | 2.0 | 9.0 | 0.00 | 0.00 | 0.00 | 22 | 1012.4 |
| 20260510025018 | 76 | 44 | 1.0 | 6.0 | 0.00 | 0.00 | 0.00 | 21 | 1012.4 |
| 20260510024511 | 76 | 33 | 1.0 | 6.0 | 0.00 | 0.00 | 0.00 | 21 | 1012.4 |
| 20260510024008 | 77 | 5 | 2.0 | 5.0 | 0.00 | 0.00 | 0.00 | 21 | 1012.4 |
| 20260510023500 | 77 | 47 | 2.0 | 7.0 | 0.00 | 0.00 | 0.00 | 20 | 1012.3 |
| 20260510022954 | 78 | 30 | 2.0 | 7.0 | 0.00 | 0.00 | 0.00 | 20 | 1012.4 |
| 20260510022447 | 79 | 30 | 2.0 | 5.0 | 0.00 | 0.00 | 0.00 | 20 | 1012.4 |
| 20260510021941 | 80 | 34 | 2.0 | 7.0 | 0.00 | 0.00 | 0.00 | 20 | 1012.6 |
| 20260510021435 | 80 | 13 | 2.0 | 8.0 | 0.00 | 0.00 | 0.00 | 20 | 1012.4 |
| 20260510020929 | 80 | 49 | 3.0 | 8.0 | 0.00 | 0.00 | 0.00 | 20 | 1012.6 |
| 20260510020423 | 80 | 337 | 2.0 | 6.0 | 0.00 | 0.00 | 0.00 | 19 | 1012.4 |
| 20260510015917 | 80 | 43 | 2.0 | 6.0 | 0.00 | 0.00 | 0.00 | 19 | 1012.4 |
| 20260510015412 | 80 | 9 | 3.0 | 7.0 | 0.00 | 0.00 | 0.00 | 18 | 1012.6 |
| 20260510014912 | 80 | 26 | 3.0 | 9.0 | 0.00 | 0.00 | 0.00 | 19 | 1012.6 |
| 20260510014359 | 80 | 23 | 4.0 | 12.0 | 0.00 | 0.00 | 0.00 | 19 | 1012.6 |
| 20260510013854 | 80 | 342 | 4.0 | 12.0 | 0.00 | 0.00 | 0.00 | 18 | 1012.7 |
| 20260510013347 | 80 | 29 | 3.0 | 9.0 | 0.00 | 0.00 | 0.00 | 18 | 1012.8 |
| 20260510012841 | 80 | 355 | 3.0 | 10.0 | 0.00 | 0.00 | 0.00 | 19 | 1012.9 |
| 20260510012412 | 81 | 355 | 4.0 | 10.0 | 0.00 | 0.00 | 0.00 | 18 | 1012.9 |
| 20260510012354 | 80 | 355 | 3.0 | 10.0 | 0.00 | 0.00 | 0.00 | 19 | 1013.0 |
| 20260510011327 | 81 | 9 | 5.0 | 10.0 | 0.00 | 0.00 | 0.00 | 18 | 1012.9 |
| 20260510011102 | 81 | 355 | 4.0 | 10.0 | 0.00 | 0.00 | 0.00 | 18 | 1012.9 |
| 20260510010311 | 82 | 331 | 4.0 | 10.0 | 0.00 | 0.00 | 0.00 | 18 | 1012.8 |
| 20260510005811 | 82 | 349 | 4.0 | 10.0 | 0.00 | 0.00 | 0.00 | 18 | 1012.7 |
| 20260510005311 | 82 | 351 | 2.0 | 10.0 | 0.00 | 0.00 | 0.00 | 17 | 1012.7 |
| 20260510004813 | 82 | 42 | 2.0 | 5.0 | 0.00 | 0.00 | 0.00 | 17 | 1012.8 |
| 20260510004317 | 82 | 0 | 3.0 | 10.0 | 0.00 | 0.00 | 0.00 | 17 | 1012.7 |
| 20260510003814 | 82 | 342 | 3.0 | 10.0 | 0.00 | 0.00 | 0.00 | 17 | 1012.7 |
| 20260510003317 | 82 | 355 | 3.0 | 9.0 | 0.00 | 0.00 | 0.00 | 16 | 1012.7 |
| 20260510002813 | 82 | 350 | 3.0 | 9.0 | 0.00 | 0.00 | 0.00 | 17 | 1012.8 |
| 20260510002548 | 82 | 44 | 3.0 | 11.0 | 0.00 | 0.00 | 0.00 | 17 | 1012.8 |
| 20260510001811 | 82 | 41 | 3.0 | 11.0 | 0.00 | 0.00 | 0.00 | 16 | 1012.8 |
| 20260510001311 | 83 | 60 | 3.0 | 8.0 | 0.00 | 0.00 | 0.00 | 16 | 1012.8 |
| 20260510000811 | 83 | 319 | 3.0 | 8.0 | 0.00 | 0.00 | 0.00 | 17 | 1012.9 |
| 20260510000311 | 82 | 49 | 4.0 | 8.0 | 0.00 | 0.00 | 0.00 | 16 | 1013.1 |
| 20260509235812 | 82 | 342 | 4.0 | 11.0 | 0.00 | 0.00 | 0.00 | 16 | 1013.0 |
| 20260509235311 | 83 | 346 | 3.0 | 11.0 | 0.00 | 0.00 | 0.00 | 15 | 1013.1 |
| 20260509234812 | 83 | 329 | 3.0 | 8.0 | 0.00 | 0.00 | 0.00 | 17 | 1013.3 |
| 20260509234311 | 83 | 36 | 3.0 | 8.0 | 0.00 | 0.00 | 0.00 | 16 | 1013.3 |
| 20260509233810 | 83 | 11 | 3.0 | 8.0 | 0.00 | 0.00 | 0.00 | 16 | 1013.4 |
| 20260509233547 | 83 | 345 | 3.0 | 13.0 | 0.00 | 0.00 | 0.00 | 16 | 1013.4 |
| 20260509232811 | 82 | 25 | 3.0 | 13.0 | 0.00 | 0.00 | 0.00 | 16 | 1013.5 |
| 20260509232310 | 81 | 26 | 3.0 | 11.0 | 0.00 | 0.00 | 0.00 | 15 | 1013.5 |
| 20260509231811 | 81 | 346 | 3.0 | 11.0 | 0.00 | 0.00 | 0.00 | 15 | 1013.6 |
| 20260509231311 | 81 | 342 | 2.0 | 5.0 | 0.00 | 0.00 | 0.00 | 14 | 1013.8 |
| 20260509230811 | 81 | 42 | 3.0 | 5.0 | 0.00 | 0.00 | 0.00 | 13 | 1013.9 |
| 20260509230312 | 82 | 289 | 3.0 | 10.0 | 0.00 | 0.00 | 0.00 | 13 | 1013.8 |
| 20260509225810 | 83 | 50 | 3.0 | 10.0 | 0.00 | 0.00 | 0.00 | 13 | 1013.9 |
| 20260509225533 | 82 | 9 | 3.0 | 11.0 | 0.00 | 0.00 | 0.00 | 14 | 1013.9 |
| 20260509224809 | 82 | 344 | 4.0 | 11.0 | 0.00 | 0.00 | 0.00 | 14 | 1014.0 |
| 20260509224312 | 82 | 5 | 4.0 | 10.0 | 0.00 | 0.00 | 0.00 | 14 | 1014.0 |
| 20260509223816 | 82 | 295 | 4.0 | 9.0 | 0.00 | 0.00 | 0.00 | 15 | 1014.1 |
| 20260509223311 | 81 | 35 | 4.0 | 10.0 | 0.00 | 0.00 | 0.00 | 14 | 1014.2 |
| 20260509222810 | 81 | 331 | 4.0 | 10.0 | 0.00 | 0.00 | 0.00 | 15 | 1014.2 |
| 20260509222530 | 81 | 317 | 4.0 | 11.0 | 0.00 | 0.00 | 0.00 | 15 | 1014.3 |
| 20260509222029 | 81 | 23 | 4.0 | 11.0 | 0.00 | 0.00 | 0.00 | 15 | 1014.4 |
| 20260509221530 | 81 | 348 | 3.0 | 11.0 | 0.00 | 0.00 | 0.00 | 14 | 1014.5 |
| 20260509221038 | 81 | 65 | 2.0 | 11.0 | 0.00 | 0.00 | 0.00 | 16 | 1014.5 |
| 20260509220300 | 80 | 41 | 3.0 | 11.0 | 0.00 | 0.00 | 0.00 | 16 | 1015.1 |
| 20260509215752 | 80 | 36 | 2.0 | 6.0 | 0.00 | 0.00 | 0.00 | 16 | 1014.7 |
| 20260509215244 | 81 | 36 | 2.0 | 8.0 | 0.00 | 0.00 | 0.00 | 17 | 1014.8 |
| 20260509214738 | 80 | 77 | 3.0 | 8.0 | 0.00 | 0.00 | 0.00 | 17 | 1015.0 |
| 20260509214232 | 80 | 92 | 2.0 | 8.0 | 0.00 | 0.00 | 0.00 | 17 | 1015.1 |
| 20260509213726 | 80 | 43 | 1.0 | 6.0 | 0.00 | 0.00 | 0.00 | 18 | 1015.1 |
| 20260509213221 | 79 | 67 | 2.0 | 8.0 | 0.00 | 0.00 | 0.00 | 16 | 1015.2 |
| 20260509212714 | 79 | 329 | 3.0 | 8.0 | 0.00 | 0.00 | 0.00 | 17 | 1015.2 |
| 20260509212208 | 80 | 92 | 3.0 | 6.0 | 0.00 | 0.00 | 0.00 | 18 | 1015.2 |
| 20260509211703 | 79 | 58 | 3.0 | 7.0 | 0.00 | 0.00 | 0.00 | 19 | 1015.3 |
| 20260509211156 | 79 | 0 | 3.0 | 8.0 | 0.00 | 0.00 | 0.00 | 18 | 1015.3 |
| 20260509210650 | 78 | 310 | 3.0 | 8.0 | 0.00 | 0.00 | 0.00 | 18 | 1015.3 |
| 20260509210147 | 78 | 36 | 2.0 | 5.0 | 0.00 | 0.00 | 0.00 | 19 | 1015.5 |
| 20260509205640 | 78 | 251 | 3.0 | 9.0 | 0.00 | 0.00 | 0.00 | 19 | 1015.5 |
| 20260509205131 | 78 | 67 | 4.0 | 9.0 | 0.00 | 0.00 | 0.00 | 21 | 1015.5 |
| 20260509204626 | 77 | 36 | 3.0 | 9.0 | 0.00 | 0.00 | 0.00 | 20 | 1015.6 |
| 20260509204120 | 77 | 64 | 3.0 | 9.0 | 0.00 | 0.00 | 0.00 | 20 | 1015.7 |
| 20260509203614 | 77 | 73 | 3.0 | 6.0 | 0.00 | 0.00 | 0.00 | 21 | 1015.8 |
| 20260509203110 | 77 | 338 | 3.0 | 7.0 | 0.00 | 0.00 | 0.00 | 21 | 1015.8 |
| 20260509202602 | 78 | 54 | 2.0 | 7.0 | 0.00 | 0.00 | 0.00 | 22 | 1015.8 |
| 20260509202056 | 78 | 34 | 2.0 | 10.0 | 0.00 | 0.00 | 0.00 | 23 | 1015.8 |
| 20260509201550 | 76 | 123 | 2.0 | 10.0 | 0.00 | 0.00 | 0.00 | 25 | 1015.9 |
| 20260509201045 | 76 | 74 | 3.0 | 6.0 | 0.00 | 0.00 | 0.00 | 24 | 1015.9 |
| 20260509200538 | 76 | 69 | 3.0 | 9.0 | 0.00 | 0.00 | 0.00 | 24 | 1016.0 |
| 20260509200033 | 75 | 61 | 2.0 | 9.0 | 0.00 | 0.00 | 0.00 | 24 | 1016.0 |
| 20260509195542 | 75 | 69 | 2.0 | 9.0 | 0.00 | 0.00 | 0.00 | 27 | 1016.1 |
| 20260509195020 | 74 | 64 | 3.0 | 9.0 | 0.00 | 0.00 | 0.00 | 26 | 1016.3 |
| 20260509194513 | 74 | 69 | 3.0 | 9.0 | 0.00 | 0.00 | 0.00 | 25 | 1016.3 |
| 20260509194011 | 74 | 67 | 2.0 | 8.0 | 0.00 | 0.00 | 0.00 | 26 | 1016.3 |
| 20260509193501 | 74 | 86 | 3.0 | 9.0 | 0.00 | 0.00 | 0.00 | 26 | 1016.4 |
| 20260509192956 | 74 | 31 | 2.0 | 9.0 | 0.00 | 0.00 | 0.00 | 26 | 1016.5 |
| 20260509192453 | 74 | 69 | 2.0 | 9.0 | 0.00 | 0.00 | 0.00 | 27 | 1016.7 |
| 20260509191953 | 74 | 90 | 3.0 | 9.0 | 0.00 | 0.00 | 0.00 | 27 | 1016.7 |
| 20260509191453 | 73 | 333 | 2.0 | 5.0 | 0.00 | 0.00 | 0.00 | 29 | 1016.7 |
| 20260509191042 | 73 | 49 | 2.0 | 9.0 | 0.00 | 0.00 | 0.00 | 31 | 1016.9 |
| 20260509191029 | 73 | 85 | 2.0 | 6.0 | 0.00 | 0.00 | 0.00 | 28 | 1016.7 |
| 20260509185950 | 72 | 87 | 3.0 | 9.0 | 0.00 | 0.00 | 0.00 | 29 | 1017.0 |
| 20260509185449 | 72 | 117 | 2.0 | 7.0 | 0.00 | 0.00 | 0.00 | 31 | 1017.1 |
| 20260509184956 | 71 | 75 | 2.0 | 5.0 | 0.00 | 0.00 | 0.00 | 33 | 1017.1 |
| 20260509184456 | 71 | 63 | 3.0 | 9.0 | 0.00 | 0.00 | 0.00 | 32 | 1017.3 |
| 20260509184019 | 71 | 63 | 2.0 | 7.0 | 0.00 | 0.00 | 0.00 | 35 | 1017.3 |
| 20260509184015 | 71 | 65 | 3.0 | 9.0 | 0.00 | 0.00 | 0.00 | 32 | 1017.2 |
| 20260509182949 | 70 | 85 | 2.0 | 6.0 | 0.00 | 0.00 | 0.00 | 35 | 1017.3 |
| 20260509182449 | 70 | 115 | 2.0 | 6.0 | 0.00 | 0.00 | 0.00 | 36 | 1017.5 |
| 20260509181953 | 70 | 135 | 1.0 | 6.0 | 0.00 | 0.00 | 0.00 | 32 | 1017.6 |
| 20260509181455 | 69 | 101 | 2.0 | 6.0 | 0.00 | 0.00 | 0.00 | 36 | 1017.6 |
| 20260509181022 | 68 | 122 | 2.0 | 7.0 | 0.00 | 0.00 | 0.00 | 37 | 1017.6 |
| 20260509181017 | 68 | 74 | 2.0 | 6.0 | 0.00 | 0.00 | 0.00 | 37 | 1017.6 |
| 20260509175948 | 67 | 155 | 3.0 | 7.0 | 0.00 | 0.00 | 0.00 | 37 | 1017.6 |
| 20260509175446 | 67 | 175 | 2.0 | 7.0 | 0.00 | 0.00 | 0.00 | 38 | 1017.6 |
| 20260509174946 | 67 | 126 | 3.0 | 9.0 | 0.00 | 0.00 | 0.00 | 39 | 1017.7 |
| 20260509174444 | 66 | 107 | 3.0 | 9.0 | 0.00 | 0.00 | 0.00 | 39 | 1017.7 |
| 20260509174220 | 67 | 198 | 2.0 | 9.0 | 0.00 | 0.00 | 0.00 | 39 | 1017.7 |
| 20260509173440 | 66 | 128 | 3.0 | 9.0 | 0.00 | 0.00 | 0.00 | 41 | 1017.7 |
| 20260509172939 | 66 | 127 | 3.0 | 9.0 | 0.00 | 0.00 | 0.00 | 41 | 1017.8 |
| 20260509172440 | 65 | 213 | 2.0 | 9.0 | 0.00 | 0.00 | 0.00 | 42 | 1017.8 |
| 20260509171941 | 65 | 104 | 3.0 | 8.0 | 0.00 | 0.00 | 0.00 | 44 | 1017.9 |
| 20260509171440 | 65 | 117 | 3.0 | 9.0 | 0.00 | 0.00 | 0.00 | 44 | 1017.9 |
| 20260509170938 | 64 | 109 | 3.0 | 9.0 | 0.00 | 0.00 | 0.00 | 44 | 1017.9 |
| 20260509170659 | 64 | 126 | 2.0 | 7.0 | 0.00 | 0.00 | 0.00 | 45 | 1018.0 |
| 20260509170439 | 64 | 126 | 2.0 | 7.0 | 0.00 | 0.00 | 0.00 | 45 | 1018.0 |
| 20260509165935 | 64 | 115 | 2.0 | 8.0 | 0.00 | 0.00 | 0.00 | 45 | 1018.0 |
| 20260509165431 | 63 | 119 | 2.0 | 8.0 | 0.00 | 0.00 | 0.00 | 45 | 1018.0 |
| 20260509165239 | 62 | 178 | 2.0 | 6.0 | 0.00 | 0.00 | 0.00 | 48 | 1018.2 |
| 20260509165234 | 63 | 96 | 2.0 | 7.0 | 0.00 | 0.00 | 0.00 | 47 | 1018.1 |
| 20260509163931 | 62 | 168 | 2.0 | 8.0 | 0.00 | 0.00 | 0.00 | 49 | 1018.2 |
| 20260509163439 | 61 | 159 | 1.0 | 8.0 | 0.00 | 0.00 | 0.00 | 49 | 1018.2 |
| 20260509162930 | 60 | 169 | 1.0 | 2.0 | 0.00 | 0.00 | 0.00 | 52 | 1018.2 |
| 20260509162430 | 59 | 175 | 1.0 | 7.0 | 0.00 | 0.00 | 0.00 | 52 | 1018.3 |
| 20260509162427 | 59 | 197 | 2.0 | 7.0 | 0.00 | 0.00 | 0.00 | 52 | 1018.3 |
| 20260509161426 | 58 | 111 | 2.0 | 5.0 | 0.00 | 0.00 | 0.00 | 54 | 1018.5 |
| 20260509160918 | 58 | 182 | 2.0 | 5.0 | 0.00 | 0.00 | 0.00 | 53 | 1018.5 |